Location: Aalen
(48.8330°N, 10.1000°E)
Time: 20:38:09
(UTC+02:00)

S-56A Canister/Altair - Pass Details

Date: 01 August 2021
Orbit: 632 x 2500 km, 38.9° (Epoch: 19 September)

Event Time Altitude Azimuth Distance (km) Brightness Sun altitude
Rises 13:03:56 0° 170° (S) 5,183 12.2 58.7°
Reaches altitude 10° 13:10:31 10° 143° (SE) 4,613 12.1 58.9°
Maximum altitude 13:14:42 12° 124° (SE) 4,645 12.0 59.0°
Drops below altitude 10° 13:19:10 10° 105° (ESE) 4,998 11.9 59.0°
Sets 13:27:06 0° 81° (E) 6,173 12.1 59.1°
